Погода в Горновом

Россия / Алтайский край     53°04′29″N   85°20′13″E
В апреле 2022 года жителям России запретили посещать сайт meteo.paraplan.net по решению Генеральной прокуратуры. Аудитория сайта уменьшилась в 10 раз. Владельцы сайта не видят смысла в поддержке погодного сервера в таких условиях. Сайт будет закрыт в октябре.
темп.,
°C
ветер,
м/с
пор.,
м/с
влажн.,
%
обл.,
%
осадки,
мм/ч
давл.,
гПа
погр.,
м
4 октября, вт
вт401:00−2св35820 0.0 103368
04:00−2св34800 0.0 103355
07:00−3св34814 0.0 103346
10:00+3св34630 0.0 1033227
13:00+7св22485 0.0 1032655
16:00+8ссв224410 0.0 1032796
19:00+3с22645 0.0 103310
22:00+2ссз1165100 0.0 103410
5 октября, ср
ср501:00+1сз1168100 0.0 103310
04:000зюз227285 0.0 103310
07:000юз2274100 0.0 103429
10:00+3юз4662100 0.0 1033270
13:00+3зюз4970100 0.1 1033370
16:00+1юз61396100 0.8 1032530
19:00+2зюз61281100 1.3 1032483
22:00+3зюз41178100 0.4 1033356
6 октября, чт
чт601:00+3зюз41083100 1.1 1032311
04:00+3зюз3887100 1.5 1031260
07:00+3з2490100 4.3 1031149
10:00+3з2396100 3.2 1031123
13:00+4св0196100 3.6 1032179
16:00+5юз119195 0.0 1032257
19:00+4ю119464 0.1 103312
22:00+4юв239699 0.0 103378
7 октября, пт
пт701:00+3юв3496100 0.0 1033151
04:00+2юв349781 0.0 103382
07:00+3вюв359179 0.0 1032140
10:00+4в348089 0.0 1032204
13:00+8в336233 0.0 1031595
16:00+9в3361100 0.0 1030624
19:00+5вюв368454 0.0 1030110
22:00+3в358891 0.0 102994
8 октября, сб
сб801:00+3в3482100 0.0 102860
04:00+3вюв3590100 0.0 102673
07:00+3вюв3693100 0.0 1026100
10:00+6юв4678100 0.0 1024166
13:00+11ююв4556100 0.0 1021340
16:00+12ююв4553100 0.0 1019319
19:00+9юв4569100 0.0 101866
22:00+8ююв41066100 0.0 1016117